Location: Casteau
(50.5142°N, 4.0161°E)
Time: 02:31:52
(UTC+00:00)

Cosmos 807 - Pass Details

Date: 18 September 2020
Orbit: 372 x 1185 km, 82.9° (Epoch: 24 October)

Event Time Altitude Azimuth Distance (km) Brightness Sun altitude
Rises 18:44:57 0° 185° (S) 2,276 7.9 -9.4°
Reaches altitude 10° 18:46:48 10° 184° (S) 1,472 6.9 -9.7°
Maximum altitude 18:49:56 80° 98° (E) 465 4.3 -10.2°
Drops below altitude 10° 18:53:42 10° 11° (NNE) 1,763 7.5 -10.8°
Sets 18:56:05 0° 11° (N) 2,786 8.5 -11.1°
